Zurück zum Katalog

STARLINK-2565

AktivKommunikationVLEO
NORAD 48280·PAYLOAD·🇺🇸 United States

Gestartet Apr 29, 2021 von Cape Canaveral Space Force Station

Loading…

Nächste Überflüge (nächste 24 Stunden)

TLE

AktuellSource: CelesTrak SupGP

Epoche: Sep 14, 2026, 20:42 UTC

1 48280C 21036E   26257.86298611 -.00007957  00000+0 -25591-3 0  2578
2 48280  53.1573 300.8210 0001180  90.2634 126.9034 15.31701731    11

Verfolge STARLINK-2565 in Echtzeit mit AllMySat

Download on the App Store